OPS 4682 DEB, 38458

Orbit data source: Space-Track

OPS 4682 DEB, 38458 is space debris in LEO originally from a launch on Sat, 03 Apr 1965 UTC launched from the Air Force Western Test Range (AFWTR). Debris objects in space refer to the collection of defunct objects orbiting the Earth. Examples of debris include non-operational satellites, rocket bodies, and fragments generated from explosions, collisions, or faulty payload assembly.

Loading next visibility...
Identifier
38458, 1965-027FP
Orbit
LEO
Country
Flag of USUS
Related business
Manufacturer
Unknown
Mission
Spacecraft
Bus & Motor
Unknown
Mass
Unknown
Launch date (UTC)
1965-04-03 (61 years ago)
Launch vehicle
Unknown
Launch site
Air Force Western Test Range (AFWTR)
Object type
Payload
Rocket body
Debris
Shape & HBR
Unknown shape, 0.1 m
Radar Cross Section
Small (<0.1 m²)

Expand to show TLE details & history
Last TLE update: 15 hours ago

TLE from 15 hours ago
0 OPS 4682 DEB
1 38458U 65027FP  26264.58385124  .00000223  00000-0  78408-3 0  9991
2 38458  90.2516   8.9859 0027835  32.7314 327.5522 12.93455974626129
Epoch: 2026-09-21T14:00Z
TLE epoch observation values (Epoch: 2026-09-21T14:00:44.747Z)
Latitude
-0.00001°
Longitude
158.33787°
Altitude
1,272.715 km
Speed
7.228 km/s
True Right ascension
00h 35m 56s
True Declination
0° 00' 00"
Sunlit
Object was in full shadow at epoch
Visualization orbit readout
Latitude
Unknown
Longitude
Unknown
Altitude
Unknown
Speed
Unknown
Apparent Right ascension
Unknown
Apparent Declination
Unknown
Sunlit
N/A
Visualization observer readout
Local Sidereal Time
22:03:45
Azimuth
Unknown
Elevation
Unknown
Doppler factor
Unknown
Orbital elements
Apogee altitude
1,306.302 km
Perigee altitude
1,263.641 km
Semi-major axis
7,663.108 km
Eccentricity
0.00278
Inclination
90.2516°
RAAN
8.9859°
Arg. of periapsis
32.7314°
True anomaly
327.38056°
Mean anomaly
327.5522°
Eccentric anomaly
327.46643°
Mean motion
3.23546 °/min
Orbital period
111.27 mins
BSTAR
0.00078408
Loading maneuver chart data...
Computing Atmospheric mass density...
Loading historical data...
Loading historical data...
Loading historical data...
Loading historical data...
Loading historical data...
Loading historical data...
Loading historical data...

Documentation

Showing up to 5 results
|